DO6HN-6 Weather Reports


Display with metric or nautical units.
time (UTC)temp
F
wind
direction
speed
MPH
gust
MPH
rain 1hr
in
rain 24hr
in
rain mn
in
humidity
%
barometer
mb
20260509054758 59 0.0 0.0 0.00 0.00 0.00 6 994.9
20260509053518 59 0.0 0.0 0.00 0.00 0.00 6 994.9
20260509052238 58 0.0 0.0 0.00 0.00 0.00 6 994.8
20260509051013 58 0.0 0.0 0.00 0.00 0.00 6 994.8
20260509045642 58 0.0 0.0 0.00 0.00 0.00 6 994.6
20260509044258 58 0.0 0.0 0.00 0.00 0.00 6 994.6
20260509042903 58 0.0 0.0 0.00 0.00 0.00 6 994.4
20260509041658 58 0.0 0.0 0.00 0.00 0.00 6 994.3
20260509040324 58 0.0 0.0 0.00 0.00 0.00 6 994.3
20260509035023 58 0.0 0.0 0.00 0.00 0.00 6 994.4
20260509033718 58 0.0 0.0 0.00 0.00 0.00 6 994.3
20260509032222 59 0.0 0.0 0.00 0.00 0.00 5 994.4
20260509031023 59 0.0 0.0 0.00 0.00 0.00 5 994.4
20260509025522 60 0.0 0.0 0.00 0.00 0.00 5 994.5
20260509024228 60 0.0 0.0 0.00 0.00 0.00 5 994.4
20260509022738 61 0.0 0.0 0.00 0.00 0.00 5 994.5
20260509021308 61 0.0 0.0 0.00 0.00 0.00 5 994.6
20260509015853 62 0.0 0.0 0.00 0.00 0.00 5 994.7
20260509014518 62 0.0 0.0 0.00 0.00 0.00 5 994.6
20260509013103 62 0.0 0.0 0.00 0.00 0.00 5 994.6
20260509011723 63 0.0 0.0 0.00 0.00 0.00 5 994.6
20260509010338 63 0.0 0.0 0.00 0.00 0.00 5 994.7
20260509005058 63 0.0 0.0 0.00 0.00 0.00 5 994.6
20260509003618 63 0.0 0.0 0.00 0.00 0.00 5 994.5
20260509002328 63 0.0 0.0 0.00 0.00 0.00 5 994.5
20260509000928 65 0.0 0.0 0.00 0.00 0.00 4 994.5
20260508235610 65 0.0 0.0 0.00 0.00 0.00 4 994.4
20260508234153 63 0.0 0.0 0.00 0.00 0.00 5 994.5
20260508232848 64 0.0 0.0 0.00 0.00 0.00 5 994.4
20260508231638 63 0.0 0.0 0.00 0.00 0.00 5 994.4
20260508230222 62 0.0 0.0 0.00 0.00 0.00 5 994.3
20260508224803 63 0.0 0.0 0.00 0.00 0.00 5 994.4
20260508223443 63 0.0 0.0 0.00 0.00 0.00 5 994.4
20260508222018 64 0.0 0.0 0.00 0.00 0.00 5 994.3
20260508220728 65 0.0 0.0 0.00 0.00 0.00 4 994.4
20260508215453 65 0.0 0.0 0.00 0.00 0.00 4 994.4
20260508214002 64 0.0 0.0 0.00 0.00 0.00 4 994.3
20260508212528 66 0.0 0.0 0.00 0.00 0.00 4 994.2
20260508211118 65 0.0 0.0 0.00 0.00 0.00 4 994.2
20260508205833 66 0.0 0.0 0.00 0.00 0.00 4 994.1
20260508204618 67 0.0 0.0 0.00 0.00 0.00 4 994.2
20260508203253 67 0.0 0.0 0.00 0.00 0.00 4 994.2
20260508202043 68 0.0 0.0 0.00 0.00 0.00 4 994.1
20260508200719 68 0.0 0.0 0.00 0.00 0.00 4 994.0
20260508195408 69 0.0 0.0 0.00 0.00 0.00 4 993.9
20260508194138 69 0.0 0.0 0.00 0.00 0.00 4 993.8
20260508192833 69 0.0 0.0 0.00 0.00 0.00 4 993.6
20260508191428 70 0.0 0.0 0.00 0.00 0.00 4 993.4
20260508190023 71 0.0 0.0 0.00 0.00 0.00 4 993.2
20260508184822 71 0.0 0.0 0.00 0.00 0.00 3 993.0
20260508183358 72 0.0 0.0 0.00 0.00 0.00 3 992.8
20260508181908 72 0.0 0.0 0.00 0.00 0.00 3 992.8
20260508180704 73 0.0 0.0 0.00 0.00 0.00 3 992.8
20260508175218 74 0.0 0.0 0.00 0.00 0.00 3 992.5
20260508174018 74 0.0 0.0 0.00 0.00 0.00 3 992.4
20260508172708 75 0.0 0.0 0.00 0.00 0.00 3 992.2
20260508171238 76 0.0 0.0 0.00 0.00 0.00 3 992.3
20260508165903 77 0.0 0.0 0.00 0.00 0.00 3 992.2
20260508164448 77 0.0 0.0 0.00 0.00 0.00 3 992.3
20260508163248 78 0.0 0.0 0.00 0.00 0.00 3 992.3
20260508162018 78 0.0 0.0 0.00 0.00 0.00 3 992.2
20260508160548 78 0.0 0.0 0.00 0.00 0.00 3 992.3
20260508155156 78 0.0 0.0 0.00 0.00 0.00 3 992.4
20260508153848 78 0.0 0.0 0.00 0.00 0.00 3 992.4
20260508152613 78 0.0 0.0 0.00 0.00 0.00 3 992.4
20260508151203 79 0.0 0.0 0.00 0.00 0.00 3 992.4
20260508145748 79 0.0 0.0 0.00 0.00 0.00 3 992.5
20260508144323 79 0.0 0.0 0.00 0.00 0.00 3 992.8
20260508142928 78 0.0 0.0 0.00 0.00 0.00 3 992.9
20260508141608 77 0.0 0.0 0.00 0.00 0.00 3 993.0
20260508140123 76 0.0 0.0 0.00 0.00 0.00 3 993.2
20260508134653 78 0.0 0.0 0.00 0.00 0.00 3 993.1
20260508133233 77 0.0 0.0 0.00 0.00 0.00 3 993.3
20260508131833 76 0.0 0.0 0.00 0.00 0.00 3 993.3
20260508130418 76 0.0 0.0 0.00 0.00 0.00 3 993.3
20260508125043 75 0.0 0.0 0.00 0.00 0.00 3 993.5
20260508123703 76 0.0 0.0 0.00 0.00 0.00 3 993.7
20260508122322 73 0.0 0.0 0.00 0.00 0.00 4 993.7
20260508120848 73 0.0 0.0 0.00 0.00 0.00 4 993.7
20260508115523 73 0.0 0.0 0.00 0.00 0.00 4 993.8
20260508114233 72 0.0 0.0 0.00 0.00 0.00 4 994.0
20260508113023 71 0.0 0.0 0.00 0.00 0.00 4 994.1
20260508111658 70 0.0 0.0 0.00 0.00 0.00 4 994.2
20260508110458 71 0.0 0.0 0.00 0.00 0.00 4 994.3
20260508105122 73 0.0 0.0 0.00 0.00 0.00 4 994.3
20260508103802 72 0.0 0.0 0.00 0.00 0.00 4 994.4
20260508102313 70 0.0 0.0 0.00 0.00 0.00 4 994.4
20260508100913 66 0.0 0.0 0.00 0.00 0.00 5 994.4
20260508095413 65 0.0 0.0 0.00 0.00 0.00 5 994.5
20260508094103 64 0.0 0.0 0.00 0.00 0.00 5 994.7
20260508092716 63 0.0 0.0 0.00 0.00 0.00 5 994.8
20260508091248 63 0.0 0.0 0.00 0.00 0.00 5 994.8
20260508090033 61 0.0 0.0 0.00 0.00 0.00 6 994.8
20260508084608 60 0.0 0.0 0.00 0.00 0.00 6 994.8
20260508083313 59 0.0 0.0 0.00 0.00 0.00 6 994.7
20260508081828 58 0.0 0.0 0.00 0.00 0.00 6 994.8
20260508080402 59 0.0 0.0 0.00 0.00 0.00 6 994.7
20260508075018 57 0.0 0.0 0.00 0.00 0.00 6 994.7
20260508073648 57 0.0 0.0 0.00 0.00 0.00 6 994.8
20260508072438 57 0.0 0.0 0.00 0.00 0.00 6 994.8
20260508071028 56 0.0 0.0 0.00 0.00 0.00 6 994.7
20260508065633 54 0.0 0.0 0.00 0.00 0.00 7 994.8
20260508064133 53 0.0 0.0 0.00 0.00 0.00 7 994.7
20260508062648 54 0.0 0.0 0.00 0.00 0.00 6 994.7
20260508061253 54 0.0 0.0 0.00 0.00 0.00 6 994.7
20260508055938 53 0.0 0.0 0.00 0.00 0.00 6 994.7